TRA917V EHAM-LIEO

Flight info

Callsign TRA917V
Flight time N/A
Altitude 35000
Route WOODY N872 NIK M624 RITAX DCT SUTAL DCT GTQ DCT DEVDI DCT ODINA DCT MONEB DCT SPEZI DCT BEGUD DCT BATOX
Aircraft B738/M-SDE2E3FGIJ1RWXYZ/LB1

Departure

Time 2026-04-28 17:24
Airport Amsterdam Airport Schiphol (EHAM)

Arrival

Time N/A
Airport Olbia Costa Smeralda Airport (LIEO)
Time Latitude Longitude Altitude Speed Heading
2026-04-28 16:15 52.30467 4.76777 -2 ft 0 kts 322°
2026-04-28 17:07 52.30462 4.76783 -2 ft 4 kts 322°
2026-04-28 17:07 52.30442 4.76811 -2 ft 4 kts 312°
2026-04-28 17:08 52.30428 4.76846 -2 ft 4 kts 272°
2026-04-28 17:08 52.30429 4.76863 -2 ft 0 kts 248°
2026-04-28 17:13 52.30424 4.76849 -2 ft 3 kts 237°
2026-04-28 17:13 52.30402 4.76798 -2 ft 8 kts 234°
2026-04-28 17:13 52.30363 4.76697 -2 ft 13 kts 238°
2026-04-28 17:13 52.30306 4.76551 -2 ft 18 kts 237°
2026-04-28 17:14 52.30239 4.76375 -2 ft 18 kts 238°
2026-04-28 17:14 52.30172 4.76202 -2 ft 18 kts 238°
2026-04-28 17:14 52.30108 4.76038 -2 ft 17 kts 238°
2026-04-28 17:14 52.30047 4.75874 -2 ft 16 kts 238°
2026-04-28 17:15 52.29987 4.75720 -2 ft 16 kts 237°
2026-04-28 17:15 52.29930 4.75571 -2 ft 15 kts 239°
2026-04-28 17:15 52.29876 4.75430 -2 ft 15 kts 237°
2026-04-28 17:15 52.29832 4.75288 -2 ft 14 kts 261°
2026-04-28 17:16 52.29866 4.75150 -2 ft 13 kts 311°
2026-04-28 17:16 52.29934 4.75024 -2 ft 16 kts 311°
2026-04-28 17:16 52.30017 4.74870 -2 ft 20 kts 311°
2026-04-28 17:16 52.30110 4.74700 4 ft 20 kts 311°
2026-04-28 17:17 52.30200 4.74532 9 ft 19 kts 311°
2026-04-28 17:17 52.30284 4.74373 8 ft 15 kts 310°
2026-04-28 17:17 52.30355 4.74240 -2 ft 16 kts 311°
2026-04-28 17:17 52.30460 4.74197 -2 ft 16 kts
2026-04-28 17:18 52.30568 4.74206 -2 ft 15 kts
2026-04-28 17:18 52.30672 4.74216 -2 ft 15 kts
2026-04-28 17:18 52.30770 4.74224 -2 ft 15 kts
2026-04-28 17:18 52.30875 4.74235 -2 ft 16 kts
2026-04-28 17:19 52.30985 4.74247 -2 ft 16 kts
2026-04-28 17:19 52.31092 4.74257 -2 ft 15 kts
2026-04-28 17:19 52.31195 4.74267 -2 ft 15 kts
2026-04-28 17:19 52.31294 4.74275 -2 ft 14 kts
2026-04-28 17:20 52.31368 4.74283 -2 ft 10 kts 10°
2026-04-28 17:20 52.31399 4.74327 -2 ft 9 kts 71°
2026-04-28 17:20 52.31394 4.74469 -2 ft 9 kts 88°
2026-04-28 17:20 52.31398 4.74573 -2 ft 9 kts 86°
2026-04-28 17:21 52.31417 4.74665 -2 ft 9 kts 37°
2026-04-28 17:21 52.31478 4.74672 -2 ft 9 kts 357°
2026-04-28 17:21 52.31540 4.74665 -2 ft 9 kts 356°
2026-04-28 17:22 52.31654 4.74693 -1 ft 8 kts 42°
2026-04-28 17:22 52.31668 4.74773 -2 ft 5 kts 90°
2026-04-28 17:22 52.31668 4.74789 -2 ft 1 kts 89°
2026-04-28 17:23 52.31669 4.74825 -2 ft 2 kts 87°
2026-04-28 17:23 52.31671 4.74864 -3 ft 8 kts 86°
2026-04-28 17:23 52.31684 4.75240 -4 ft 64 kts 86°
2026-04-28 17:23 52.31720 4.76278 -1 ft 119 kts 86°
2026-04-28 17:24 52.31767 4.77888 40 ft 159 kts 87°
2026-04-28 17:24 52.31779 4.79709 656 ft 154 kts 89°
2026-04-28 17:24 52.31511 4.81419 1284 ft 170 kts 117°
2026-04-28 17:24 52.30449 4.82668 1511 ft 211 kts 155°